Time,TemperatureF,DewpointF,PressureIn,WindDirection,WindDirectionDegrees,WindSpeedMPH,WindSpeedGustMPH,Humidity,HourlyPrecipIn,Conditions,Clouds,dailyrainin,SoftwareType,DateUTC
2013-06-07 00:03:00,57.0,50.0,29.86,NNE,32,3.0,9.0,78,0.00,,,0.00,,2013-06-07 04:03:00,
2013-06-07 00:12:00,57.0,50.0,29.86,NNE,32,3.0,9.0,78,0.00,,,0.00,,2013-06-07 04:12:00,
2013-06-07 00:23:00,57.0,51.0,29.86,North,355,2.0,7.0,79,0.00,,,0.00,,2013-06-07 04:23:00,
2013-06-07 00:33:00,57.0,50.0,29.85,North,360,4.0,8.0,78,0.00,,,0.00,,2013-06-07 04:33:00,
2013-06-07 00:42:00,57.0,50.0,29.85,North,360,4.0,8.0,78,0.00,,,0.00,,2013-06-07 04:42:00,
2013-06-07 00:53:00,57.0,50.0,29.85,NNE,25,3.0,8.0,78,0.00,,,0.00,,2013-06-07 04:53:00,
2013-06-07 01:03:00,56.0,50.0,29.85,NNE,22,1.0,5.0,79,0.00,,,0.00,,2013-06-07 05:03:00,
2013-06-07 01:12:00,56.0,50.0,29.85,NNE,22,1.0,5.0,79,0.00,,,0.00,,2013-06-07 05:12:00,
2013-06-07 01:22:00,56.0,50.0,29.86,NNE,17,0.0,3.0,80,0.00,,,0.00,,2013-06-07 05:22:00,
2013-06-07 01:32:00,56.0,50.0,29.86,NNE,17,0.0,2.0,80,0.00,,,0.00,,2013-06-07 05:32:00,
2013-06-07 01:42:00,56.0,50.0,29.86,NNE,17,0.0,2.0,80,0.00,,,0.00,,2013-06-07 05:42:00,
2013-06-07 01:52:00,56.0,50.0,29.86,NNE,18,2.0,4.0,80,0.00,,,0.00,,2013-06-07 05:52:00,
2013-06-07 02:02:00,56.0,50.0,29.86,NNE,30,1.0,3.0,81,0.00,,,0.00,,2013-06-07 06:02:00,
2013-06-07 02:12:00,56.0,50.0,29.86,NNE,30,1.0,3.0,81,0.00,,,0.00,,2013-06-07 06:12:00,
2013-06-07 02:22:00,56.0,50.0,29.86,NNE,25,0.0,3.0,81,0.00,,,0.00,,2013-06-07 06:22:00,
2013-06-07 02:32:00,56.0,50.0,29.85,North,355,1.0,6.0,81,0.00,,,0.00,,2013-06-07 06:32:00,
2013-06-07 02:42:00,56.0,50.0,29.85,North,355,1.0,6.0,81,0.00,,,0.00,,2013-06-07 06:42:00,
2013-06-07 02:52:00,56.0,50.0,29.85,NNE,22,2.0,4.0,81,0.00,,,0.00,,2013-06-07 06:52:00,
2013-06-07 03:02:00,56.0,51.0,29.85,North,5,1.0,4.0,82,0.00,,,0.00,,2013-06-07 07:02:00,
2013-06-07 03:12:00,56.0,51.0,29.85,North,5,1.0,4.0,82,0.00,,,0.00,,2013-06-07 07:12:00,
2013-06-07 03:22:00,56.0,51.0,29.85,NNE,19,2.0,4.0,82,0.00,,,0.00,,2013-06-07 07:22:00,
2013-06-07 03:32:00,56.0,51.0,29.85,NNE,26,1.0,4.0,82,0.00,,,0.00,,2013-06-07 07:32:00,
2013-06-07 03:42:00,56.0,51.0,29.85,NNE,26,1.0,4.0,82,0.00,,,0.00,,2013-06-07 07:42:00,
2013-06-07 03:52:00,56.0,51.0,29.85,NNW,347,2.0,6.0,82,0.00,,,0.00,,2013-06-07 07:52:00,
2013-06-07 04:02:00,55.0,50.0,29.85,NNE,24,2.0,4.0,83,0.00,,,0.00,,2013-06-07 08:02:00,
2013-06-07 04:12:00,55.0,50.0,29.85,NNE,24,2.0,4.0,83,0.00,,,0.00,,2013-06-07 08:12:00,
2013-06-07 04:22:00,55.0,50.0,29.84,NNE,26,2.0,4.0,83,0.00,,,0.00,,2013-06-07 08:22:00,
2013-06-07 04:32:00,55.0,50.0,29.84,NNE,26,2.0,4.0,84,0.00,,,0.00,,2013-06-07 08:32:00,
2013-06-07 04:42:00,55.0,50.0,29.84,NNE,26,2.0,4.0,84,0.00,,,0.00,,2013-06-07 08:42:00,
2013-06-07 04:52:00,55.0,51.0,29.85,NNE,17,2.0,4.0,85,0.00,,,0.00,,2013-06-07 08:52:00,
2013-06-07 05:02:00,55.0,51.0,29.84,NE,55,2.0,5.0,86,0.00,,,0.00,,2013-06-07 09:02:00,
2013-06-07 05:12:00,55.0,51.0,29.84,NE,55,2.0,5.0,86,0.00,,,0.00,,2013-06-07 09:12:00,
2013-06-07 05:22:00,55.0,51.0,29.85,NNE,16,2.0,5.0,86,0.00,,,0.00,,2013-06-07 09:22:00,
2013-06-07 05:32:00,55.0,51.0,29.85,North,9,3.0,6.0,85,0.00,,,0.00,,2013-06-07 09:32:00,
2013-06-07 05:43:00,55.0,51.0,29.85,North,9,3.0,6.0,85,0.00,,,0.00,,2013-06-07 09:43:00,
2013-06-07 05:53:00,55.0,51.0,29.84,NE,44,2.0,6.0,86,0.00,,,0.00,,2013-06-07 09:53:00,
2013-06-07 06:02:00,55.0,51.0,29.85,NNE,22,1.0,6.0,86,0.00,,,0.00,,2013-06-07 10:02:00,
2013-06-07 06:12:00,55.0,51.0,29.85,NNE,22,1.0,6.0,86,0.00,,,0.00,,2013-06-07 10:12:00,
2013-06-07 06:23:00,55.0,51.0,29.85,NNE,22,3.0,7.0,86,0.00,,,0.00,,2013-06-07 10:23:00,
2013-06-07 06:32:00,54.0,50.0,29.85,NNE,26,1.0,4.0,87,0.00,,,0.00,,2013-06-07 10:32:00,
2013-06-07 06:42:00,54.0,50.0,29.85,NNE,26,1.0,4.0,87,0.00,,,0.00,,2013-06-07 10:42:00,
2013-06-07 06:52:00,54.0,51.0,29.85,NNE,22,1.0,3.0,88,0.00,,,0.00,,2013-06-07 10:52:00,
2013-06-07 07:02:00,54.0,51.0,29.86,NNE,21,1.0,5.0,89,0.00,,,0.00,,2013-06-07 11:02:00,
2013-06-07 07:12:00,54.0,51.0,29.86,NNE,21,1.0,5.0,89,0.00,,,0.00,,2013-06-07 11:12:00,
2013-06-07 07:22:00,54.0,51.0,29.86,NNE,19,2.0,4.0,89,0.00,,,0.00,,2013-06-07 11:22:00,
2013-06-07 07:32:00,54.0,51.0,29.86,NNE,22,2.0,4.0,90,0.00,,,0.00,,2013-06-07 11:32:00,
2013-06-07 07:42:00,54.0,51.0,29.86,NNE,22,2.0,4.0,90,0.00,,,0.00,,2013-06-07 11:42:00,
2013-06-07 07:52:00,55.0,52.0,29.86,NNE,32,2.0,5.0,90,0.00,,,0.00,,2013-06-07 11:52:00,
2013-06-07 08:02:00,55.0,52.0,29.86,NNE,16,2.0,5.0,89,0.00,,,0.00,,2013-06-07 12:02:00,
2013-06-07 08:12:00,55.0,52.0,29.86,NNE,16,2.0,5.0,89,0.00,,,0.00,,2013-06-07 12:12:00,
2013-06-07 08:22:00,55.0,52.0,29.86,NNE,17,2.0,5.0,90,0.00,,,0.00,,2013-06-07 12:22:00,
2013-06-07 08:32:00,57.0,53.0,29.87,NNE,20,2.0,6.0,88,0.00,,,0.00,,2013-06-07 12:32:00,
2013-06-07 08:42:00,57.0,53.0,29.87,NNE,20,2.0,6.0,88,0.00,,,0.00,,2013-06-07 12:42:00,
2013-06-07 08:52:00,58.0,54.0,29.87,NE,34,2.0,5.0,86,0.00,,,0.00,,2013-06-07 12:52:00,
2013-06-07 09:02:00,59.0,54.0,29.87,North,360,3.0,6.0,85,0.00,,,0.00,,2013-06-07 13:02:00,
2013-06-07 09:12:00,59.0,54.0,29.87,North,360,3.0,6.0,85,0.00,,,0.00,,2013-06-07 13:12:00,
2013-06-07 09:22:00,60.0,55.0,29.87,NNE,23,2.0,6.0,84,0.00,,,0.00,,2013-06-07 13:22:00,
2013-06-07 09:32:00,61.0,56.0,29.87,North,360,2.0,8.0,83,0.00,,,0.00,,2013-06-07 13:32:00,
2013-06-07 09:42:00,61.0,56.0,29.87,North,360,2.0,8.0,83,0.00,,,0.00,,2013-06-07 13:42:00,
2013-06-07 09:52:00,62.0,56.0,29.87,NNE,19,2.0,6.0,82,0.00,,,0.00,,2013-06-07 13:52:00,
2013-06-07 10:02:00,64.0,57.0,29.88,SE,126,1.0,4.0,79,0.00,,,0.00,,2013-06-07 14:02:00,
2013-06-07 10:12:00,64.0,57.0,29.88,SE,126,1.0,4.0,79,0.00,,,0.00,,2013-06-07 14:12:00,
2013-06-07 10:22:00,65.0,57.0,29.88,East,81,1.0,5.0,76,0.00,,,0.00,,2013-06-07 14:22:00,
2013-06-07 10:32:00,66.0,57.0,29.88,NNE,22,3.0,6.0,74,0.00,,,0.00,,2013-06-07 14:32:00,
2013-06-07 10:42:00,66.0,57.0,29.88,NNE,22,3.0,6.0,74,0.00,,,0.00,,2013-06-07 14:42:00,
2013-06-07 10:52:00,67.0,58.0,29.88,North,11,2.0,6.0,73,0.00,,,0.00,,2013-06-07 14:52:00,
2013-06-07 11:02:00,67.0,57.0,29.88,NE,46,1.0,5.0,71,0.00,,,0.00,,2013-06-07 15:02:00,
2013-06-07 11:12:00,67.0,57.0,29.88,NE,46,1.0,5.0,71,0.00,,,0.00,,2013-06-07 15:12:00,
2013-06-07 11:22:00,68.0,58.0,29.87,North,9,2.0,5.0,71,0.00,,,0.00,,2013-06-07 15:22:00,
2013-06-07 11:33:00,69.0,58.0,29.87,NNW,346,3.0,6.0,69,0.00,,,0.00,,2013-06-07 15:33:00,
2013-06-07 11:43:00,69.0,58.0,29.87,NNW,346,3.0,6.0,69,0.00,,,0.00,,2013-06-07 15:43:00,
2013-06-07 11:53:00,69.0,59.0,29.87,NNE,15,3.0,6.0,70,0.00,,,0.00,,2013-06-07 15:53:00,
2013-06-07 12:03:00,70.0,59.0,29.87,NNE,33,2.0,6.0,68,0.00,,,0.00,,2013-06-07 16:03:00,
2013-06-07 12:13:00,70.0,59.0,29.87,NNE,33,2.0,6.0,68,0.00,,,0.00,,2013-06-07 16:13:00,
2013-06-07 12:22:00,71.0,60.0,29.87,North,360,1.0,6.0,68,0.00,,,0.00,,2013-06-07 16:22:00,
2013-06-07 12:33:00,71.0,59.0,29.87,North,9,3.0,8.0,65,0.00,,,0.00,,2013-06-07 16:33:00,
2013-06-07 12:43:00,71.0,59.0,29.87,North,9,3.0,8.0,65,0.00,,,0.00,,2013-06-07 16:43:00,
2013-06-07 12:52:00,71.0,58.0,29.87,NNE,18,2.0,8.0,64,0.00,,,0.00,,2013-06-07 16:52:00,
2013-06-07 13:02:00,71.0,59.0,29.87,NNE,29,4.0,8.0,66,0.00,,,0.00,,2013-06-07 17:02:00,
2013-06-07 13:12:00,71.0,59.0,29.87,NNE,29,4.0,8.0,66,0.00,,,0.00,,2013-06-07 17:12:00,
2013-06-07 13:23:00,70.0,58.0,29.87,NNE,26,3.0,7.0,66,0.00,,,0.00,,2013-06-07 17:23:00,
2013-06-07 13:32:00,70.0,59.0,29.87,North,360,3.0,8.0,68,0.00,,,0.00,,2013-06-07 17:32:00,
2013-06-07 13:42:00,70.0,59.0,29.87,North,360,3.0,8.0,68,0.00,,,0.00,,2013-06-07 17:42:00,
2013-06-07 13:52:00,71.0,59.0,29.87,NE,44,2.0,8.0,67,0.00,,,0.00,,2013-06-07 17:52:00,
2013-06-07 14:06:00,71.0,59.0,29.87,NNE,17,3.0,7.0,67,0.00,,,0.00,,2013-06-07 18:06:00,
2013-06-07 14:18:00,71.0,59.0,29.87,NNE,17,3.0,7.0,67,0.00,,,0.00,,2013-06-07 18:18:00,
2013-06-07 14:24:00,70.0,57.0,29.86,NNE,17,3.0,7.0,64,0.00,,,0.00,,2013-06-07 18:24:00,
2013-06-07 14:35:00,70.0,58.0,29.86,NNE,15,3.0,8.0,66,0.00,,,0.00,,2013-06-07 18:35:00,
2013-06-07 14:44:00,70.0,58.0,29.86,NNE,15,3.0,8.0,66,0.00,,,0.00,,2013-06-07 18:44:00,
2013-06-07 14:56:00,71.0,58.0,29.86,North,5,3.0,8.0,64,0.00,,,0.00,,2013-06-07 18:56:00,
2013-06-07 15:06:00,71.0,58.0,29.86,NNE,14,3.0,7.0,63,0.00,,,0.00,,2013-06-07 19:06:00,
2013-06-07 15:14:00,71.0,58.0,29.86,NNE,14,3.0,7.0,63,0.00,,,0.00,,2013-06-07 19:14:00,
2013-06-07 15:28:00,72.0,58.0,29.86,NNE,16,4.0,7.0,61,0.00,,,0.00,,2013-06-07 19:28:00,
2013-06-07 15:35:00,72.0,57.0,29.86,NNE,17,3.0,7.0,59,0.00,,,0.00,,2013-06-07 19:35:00,
2013-06-07 15:55:00,73.0,58.0,29.85,NNE,29,4.0,10.0,59,0.00,,,0.00,,2013-06-07 19:55:00,
2013-06-07 16:07:00,73.0,58.0,29.85,NNE,14,4.0,9.0,59,0.00,,,0.00,,2013-06-07 20:07:00,
2013-06-07 16:24:00,74.0,57.0,29.85,NNE,14,3.0,9.0,55,0.00,,,0.00,,2013-06-07 20:24:00,
2013-06-07 16:38:00,74.0,54.0,29.85,NNE,22,6.0,10.0,50,0.00,,,0.00,,2013-06-07 20:38:00,
2013-06-07 16:55:00,74.0,58.0,29.85,NNW,344,4.0,10.0,57,0.00,,,0.00,,2013-06-07 20:55:00,
2013-06-07 17:05:00,74.0,54.0,29.85,NNE,16,5.0,10.0,50,0.00,,,0.00,,2013-06-07 21:05:00,
2013-06-07 17:27:00,74.0,55.0,29.85,North,355,4.0,9.0,52,0.00,,,0.00,,2013-06-07 21:27:00,
2013-06-07 17:38:00,74.0,54.0,29.84,NE,49,6.0,10.0,50,0.00,,,0.00,,2013-06-07 21:38:00,
2013-06-07 17:45:00,74.0,54.0,29.84,NE,49,6.0,10.0,50,0.00,,,0.00,,2013-06-07 21:45:00,
2013-06-07 17:55:00,73.0,54.0,29.84,NNE,24,3.0,7.0,52,0.00,,,0.00,,2013-06-07 21:55:00,
2013-06-07 18:07:00,73.0,54.0,29.84,NNE,15,5.0,8.0,52,0.00,,,0.00,,2013-06-07 22:07:00,
2013-06-07 18:27:00,73.0,54.0,29.84,NW,318,3.0,11.0,52,0.00,,,0.00,,2013-06-07 22:27:00,
2013-06-07 18:45:00,73.0,53.0,29.84,NNE,23,3.0,6.0,50,0.00,,,0.00,,2013-06-07 22:45:00,
2013-06-07 18:55:00,73.0,50.0,29.84,NNE,22,4.0,8.0,45,0.00,,,0.00,,2013-06-07 22:55:00,
2013-06-07 19:07:00,73.0,51.0,29.84,NNE,33,5.0,9.0,46,0.00,,,0.00,,2013-06-07 23:07:00,
2013-06-07 19:18:00,73.0,51.0,29.84,NNE,33,5.0,9.0,46,0.00,,,0.00,,2013-06-07 23:18:00,
2013-06-07 19:28:00,73.0,51.0,29.84,NNE,33,5.0,9.0,46,0.00,,,0.00,,2013-06-07 23:28:00,
2013-06-07 19:36:00,72.0,53.0,29.85,NNE,19,3.0,10.0,51,0.00,,,0.00,,2013-06-07 23:36:00,
2013-06-07 19:48:00,72.0,53.0,29.85,NNE,19,3.0,10.0,51,0.00,,,0.00,,2013-06-07 23:48:00,
2013-06-07 20:03:00,71.0,51.0,29.85,North,11,4.0,8.0,49,0.00,,,0.00,,2013-06-08 00:03:00,
2013-06-07 20:16:00,71.0,51.0,29.86,NE,34,5.0,9.0,49,0.00,,,0.00,,2013-06-08 00:16:00,
2013-06-07 20:27:00,70.0,50.0,29.86,North,5,5.0,8.0,50,0.00,,,0.00,,2013-06-08 00:27:00,
2013-06-07 20:34:00,69.0,51.0,29.87,North,9,5.0,10.0,53,0.00,,,0.00,,2013-06-08 00:34:00,
2013-06-07 21:07:00,66.0,52.0,29.88,NNE,15,3.0,9.0,61,0.00,,,0.00,,2013-06-08 01:07:00,
2013-06-07 21:18:00,66.0,52.0,29.88,NNE,15,3.0,9.0,61,0.00,,,0.00,,2013-06-08 01:18:00,
2013-06-07 21:27:00,64.0,51.0,29.89,NNE,33,3.0,8.0,62,0.00,,,0.00,,2013-06-08 01:27:00,
2013-06-07 21:38:00,63.0,51.0,29.90,NNE,13,3.0,7.0,65,0.00,,,0.00,,2013-06-08 01:38:00,
2013-06-07 21:44:00,63.0,51.0,29.90,NNE,13,3.0,7.0,65,0.00,,,0.00,,2013-06-08 01:44:00,
2013-06-07 21:56:00,62.0,51.0,29.90,NNE,22,3.0,9.0,66,0.00,,,0.00,,2013-06-08 01:56:00,
2013-06-07 22:14:00,61.0,50.0,29.90,NNE,13,2.0,6.0,68,0.00,,,0.00,,2013-06-08 02:14:00,
2013-06-07 22:29:00,61.0,50.0,29.90,North,11,1.0,6.0,67,0.00,,,0.00,,2013-06-08 02:29:00,
2013-06-07 22:34:00,60.0,49.0,29.90,North,5,1.0,5.0,68,0.00,,,0.00,,2013-06-08 02:34:00,
2013-06-07 22:47:00,60.0,49.0,29.90,North,5,1.0,5.0,68,0.00,,,0.00,,2013-06-08 02:47:00,
2013-06-07 22:54:00,60.0,50.0,29.90,NNE,21,1.0,4.0,70,0.00,,,0.00,,2013-06-08 02:54:00,
2013-06-07 23:08:00,58.0,49.0,29.91,NNE,21,0.0,2.0,71,0.00,,,0.00,,2013-06-08 03:08:00,
2013-06-07 23:36:00,57.0,49.0,29.91,NNE,21,0.0,2.0,74,0.00,,,0.00,,2013-06-08 03:36:00,
2013-06-07 23:50:00,57.0,49.0,29.91,NNE,21,0.0,2.0,74,0.00,,,0.00,,2013-06-08 03:50:00,
2013-06-07 23:55:00,56.0,48.0,29.91,NNE,21,1.0,3.0,75,0.00,,,0.00,,2013-06-08 03:55:00,